User: anonymous   Login
Location: Plymouth
(43.7570°N, 71.6890°W)
Time: 15:37:49
(UTC-04:00)
Language:

Cosmos 2016 Rocket - Orbit

View from above orbital plane
View from above orbital plane
View from above satellite
View from above satellite

Ground track
Ground track

The orbit data is extracted from the following two-line orbital elements,

1 19922U 89028B   15153.91497139  .00000060  00000-0  44391-4 0  9999
2 19922 082.9603 259.6083 0036865 171.0667 327.5886 13.77147218314651
Epoch (UTC): 02 June 2015 21:57:33
Eccentricity: 0.0036865
inclination: 82.9603°
perigee height: 947 km
apogee height: 1001 km
right ascension of ascending node: 259.6083°
argument of perigee: 171.0667°
revolutions per day: 13.77147218
mean anomaly at epoch: 327.5886°
orbit number at epoch: 31465

The dashed part of the orbit path shows where the satellite is in the earth's shadow,  

DLR